Flag for Switzerland Weather past 2 weeks in Kloten, Zurich, Switzerland

Now
70 °F

Scattered showers. Broken clouds.


Feels Like: 70 °F
Forecast: 57 / 73 °F
Wind: 6 mph from Southwest

Location: Zurich-Kloten

Current Time: Jul 8, 2015 at 8:34:05 AM

Latest Report: Jul 8, 2015 at 8:20 AM


Visibility: N/A

Pressure: 29.95 "Hg

Humidity: 73%

Dew point: 61 °F

Location of KlotenLocation

Historic Weather in Kloten — Graph

°F

Kloten temperature yesterday

Maximum temperature yesterday: 97 °F (at 3:50 PM)
Minimum temperature yesterday: 64 °F (at 4:50 AM)
Average temperature yesterday: 81 °F

Past Weeks' High & Low Weather Summary

 TemperatureHumidityPressure
High97 °F (Jul 5, 5:20 PM)100% (Jun 24, 3:50 AM)30.27 "Hg (Jun 24, 3:50 AM)
Low43 °F (Jun 24, 3:50 AM)22% (Jun 25, 7:20 PM)29.80 "Hg (Jul 7, 6:50 PM)
Average72 °F62%30.14 "Hg
* Reported Jun 23 7:20 AM — Jul 8 7:20 AM, Kloten, Weather by CustomWeather, © 2015

Note: Actual official high and low records may vary slightly from our data, if they occured in-between our weather recording intervals... More about our weather records

Advertising

Kloten weather history for previous 24 hours

 ConditionsComfort  
Time TempWeatherWind HumidityBarometerVisibility
7:20 AM
Wed, Jul 8
68 °FSprinkles. Broken clouds.6 mph73%29.95 "Hg5 mi
6:50 AM70 °FSprinkles. Broken clouds.2 mph69%29.95 "HgN/A
6:20 AM70 °FPassing clouds.3 mph69%29.95 "HgN/A
5:20 AM70 °FPassing clouds.6 mph64%29.95 "HgN/A
4:50 AM72 °FPassing clouds.9 mph61%29.95 "HgN/A
4:20 AM72 °FPassing clouds.8 mph61%29.95 "HgN/A
3:50 AM72 °FPassing clouds.13 mph65%29.95 "HgN/A
3:20 AM73 °FPassing clouds.9 mph61%29.95 "HgN/A
2:50 AM73 °FPassing clouds.8 mph57%29.95 "HgN/A
1:50 AM75 °FPartly cloudy.5 mph57%29.95 "HgN/A
1:20 AM75 °FThundershowers. Passing clouds.8 mph61%29.92 "HgN/A
12:50 AM77 °FThunderstorms. Partly cloudy.9 mph57%29.92 "HgN/A
12:20 AM75 °FThundershowers. Partly cloudy.8 mph69%29.89 "HgN/A
11:20 PM
Tue, Jul 7
81 °FPartly cloudy.12 mph51%29.89 "HgN/A
10:50 PM82 °FPartly cloudy.8 mph51%29.89 "HgN/A
10:20 PM79 °FBroken clouds.8 mph61%29.86 "HgN/A
9:50 PM82 °FPartly sunny.2 mph55%29.83 "HgN/A
9:20 PM84 °FBroken clouds.3 mph48%29.83 "HgN/A
8:50 PM88 °FBroken clouds.6 mph43%29.83 "HgN/A
8:20 PM90 °FBroken clouds.13 mph43%29.83 "HgN/A
7:50 PM91 °FBroken clouds.6 mph38%29.80 "HgN/A
7:20 PM91 °FRain showers. Broken clouds.9 mph41%29.80 "HgN/A
6:50 PM93 °FSunny.7 mph39%29.80 "Hg10 mi
6:20 PM95 °FSunny.6 mph36%29.83 "Hg10 mi
5:50 PM97 °FSunny.8 mph30%29.83 "Hg10 mi
5:20 PM97 °FPassing clouds.9 mph28%29.83 "HgN/A
4:50 PM97 °FPassing clouds.8 mph27%29.86 "HgN/A
4:20 PM97 °FPassing clouds.7 mph27%29.86 "HgN/A
3:50 PM97 °FPassing clouds.9 mph28%29.89 "HgN/A
3:20 PM95 °FSunny.10 mph32%29.89 "Hg10 mi
2:50 PM95 °FPassing clouds.9 mph32%29.92 "HgN/A
2:20 PM93 °FPassing clouds.10 mph36%29.92 "HgN/A
1:50 PM93 °FPassing clouds.10 mph39%29.95 "HgN/A
1:20 PM91 °FPassing clouds.14 mph41%29.95 "HgN/A
12:50 PM90 °FSunny.12 mph43%29.95 "Hg10 mi
12:20 PM90 °FPassing clouds.8 mph49%29.98 "HgN/A
11:50 AM88 °FPassing clouds.9 mph52%29.98 "HgN/A
11:20 AM86 °FPassing clouds.7 mph59%29.98 "HgN/A
10:50 AM84 °FPassing clouds.8 mph62%29.98 "HgN/A
10:20 AM82 °FSunny.3 mph66%30.01 "Hg10 mi
9:50 AM81 °FPassing clouds.5 mph70%30.01 "HgN/A
9:20 AM77 °FSunny.1 mph79%30.01 "Hg10 mi
8:50 AM75 °FSunny.No wind78%30.04 "Hg10 mi
8:20 AM72 °FSunny.No wind83%30.04 "Hg10 mi
Weather by CustomWeather, © 2015

See weather overviewHow to use our weather pages